Location: Grossmotten
(48.5500°N, 15.3833°E)
Time: 12:39:24
(UTC+00:00)

STARLINK-67 - Pass Details

Date: 15 November 2019
Orbit: 298 x 323 km, 53.0° (Epoch: 15 December)

Event Time Altitude Azimuth Distance (km) Brightness Sun altitude
Exits shadow 03:15:25 - 67° (ENE) 1,344 6.5 -28.1°
Enters shadow 04:09:42 -71° 277° (W) 12,394 10.5 -19.1°
Maximum altitude 04:47:21 53° 19° (NNE) 387 2.9 -13.0°
